Location: Ferchesar
(52.6477°N, 12.4298°E)
Time: 23:54:46
(UTC+02:00)

ISS - Visible Passes

Search period start: 24 July 2021 00:00
Search period end: 03 August 2021 00:00
Orbit: 419 x 421 km, 51.6° (Epoch: 24 July)

Date Brightness Start Highest point End Pass type
(mag) Time Alt. Az. Time Alt. Az. Time Alt. Az.
24 Jul -1.6 00:43:36 10° W 00:44:40 15° WSW 00:44:40 15° WSW visible
24 Jul -3.7 22:19:01 10° W 22:22:23 65° SSW 22:25:44 10° ESE visible
24 Jul -2.4 23:56:02 10° W 23:58:48 25° SSW 23:58:48 25° SSW visible
25 Jul -2.8 23:08:35 10° W 23:11:40 33° SSW 23:12:58 24° SSE visible
26 Jul -3.2 22:21:13 10° W 22:24:27 43° SSW 22:27:09 13° SE visible
26 Jul -1.4 23:59:03 10° WSW 00:00:06 12° SW 00:00:06 12° SW visible
27 Jul -1.9 23:11:07 10° W 23:13:31 18° SW 23:14:20 17° SSW visible
28 Jul -2.2 22:23:32 10° W 22:26:20 24° SSW 22:28:36 13° SSE visible
30 Jul -1.3 22:26:32 10° WSW 22:28:03 13° SW 22:29:36 10° SSW visible
